Home > Weather > Barranquilla > Past weeks

Flag for Colombia Weather for the Past 2 Weeks in Barranquilla, Colombia

Now
82 °F

Scattered clouds.


Feels Like: 91 °F
Forecast: 82 / 91 °F
Wind: 5 mph from North

Location: Barranquilla / Ernestocortissoz

Current Time: May 6, 2016 at 7:17:42 AM

Latest Report: May 6, 2016 at 6:00 AM


Visibility: 4 mi

Pressure: 29.82 "Hg

Humidity: 84%

Dew Point: 77 °F

Location of BarranquillaLocation

Historic Weather in Barranquilla — Graph

°F

Barranquilla Temperature Yesterday

Maximum temperature yesterday: 93 °F (at 3:00 PM)
Minimum temperature yesterday: 81 °F (at 12:54 AM)
Average temperature yesterday: 85 °F

High & Low Weather Summary for the Past Weeks

 TemperatureHumidityPressure
High97 °F (Apr 22, 11:00 AM)100% (Apr 22, 3:00 AM)29.95 "Hg (Apr 22, 3:00 AM)
Low75 °F (Apr 24, 1:00 AM)19% (May 5, 12:00 AM)29.69 "Hg (Apr 26, 3:00 PM)
Average84 °F84%29.82 "Hg
* Reported Apr 21 6:00 AM — May 6 6:00 AM, Barranquilla, Weather by CustomWeather, © 2016

Note: Actual official high and low records may vary slightly from our data, if they occured in-between our weather recording intervals... More about our weather records

Advertising

Barranquilla Weather History for the Previous 24 Hours

Scroll right to see more
 ConditionsComfort  
Time TempWeatherWind HumidityBarometerVisibility
6:00 AM
Fri, May 6
82 °FScattered clouds.5 mph84%29.82 "Hg4 mi
5:00 AM82 °FPassing clouds.9 mph84%29.79 "HgN/A
4:00 AM82 °FClear.9 mph84%29.79 "Hg10 mi
3:00 AM82 °FPassing clouds.5 mph84%29.78 "HgN/A
1:00 AM82 °FPassing clouds.7 mph94%29.84 "HgN/A
12:00 AM82 °FPassing clouds.9 mph94%29.85 "HgN/A
11:00 PM
Thu, May 5
82 °FPassing clouds.9 mph94%29.86 "HgN/A
10:00 PM82 °FPassing clouds.7 mph94%29.86 "HgN/A
9:00 PM82 °FPassing clouds.9 mph94%29.85 "HgN/A
8:00 PM84 °FPassing clouds.12 mph89%29.81 "HgN/A
7:00 PM84 °FPassing clouds.12 mph89%29.79 "HgN/A
6:00 PM86 °FPassing clouds.14 mph84%29.74 "HgN/A
5:00 PM91 °FPassing clouds.7 mph71%29.74 "HgN/A
4:00 PM91 °FPassing clouds.7 mph71%29.73 "HgN/A
3:00 PM93 °FPassing clouds.5 mph63%29.75 "HgN/A
2:00 PM91 °FScattered clouds.6 mph67%29.79 "HgN/A
1:00 PM84 °FScattered showers. Scattered clouds.7 mph79%29.84 "HgN/A
12:00 PM91 °FScattered showers. Partly sunny.5 mph71%29.86 "Hg5 mi
11:00 AM91 °FScattered clouds.8 mph71%29.87 "HgN/A
10:00 AM91 °FScattered clouds.7 mph75%29.89 "HgN/A
9:00 AM90 °FScattered clouds.2 mph79%29.89 "HgN/A
8:00 AM84 °FScattered clouds.3 mph94%29.88 "HgN/A
7:00 AM82 °FFog.5 mph94%29.86 "Hg3 mi
Weather by CustomWeather, © 2016

See weather overviewHow to use our weather pages